Year,Month,Day,Hour,Minute,Value (Times are PST for temperature in C)
2019,06,25,00,00,11.30
2019,06,25,00,01,11.20
2019,06,25,00,02,11.20
2019,06,25,00,03,11.20
2019,06,25,00,04,11.20
2019,06,25,00,05,11.20
2019,06,25,00,06,11.20
2019,06,25,00,07,11.20
2019,06,25,00,08,11.20
2019,06,25,00,09,11.20
2019,06,25,00,10,11.20
2019,06,25,00,11,11.20
2019,06,25,00,12,11.20
2019,06,25,00,13,11.20
2019,06,25,00,14,11.20
2019,06,25,00,15,11.20
2019,06,25,00,16,11.20
2019,06,25,00,17,11.20
2019,06,25,00,18,11.20
2019,06,25,00,19,11.20
2019,06,25,00,20,11.20
2019,06,25,00,21,11.10
2019,06,25,00,22,11.10
2019,06,25,00,23,11.10
2019,06,25,00,24,11.10
2019,06,25,00,25,11.10
2019,06,25,00,26,11.10
2019,06,25,00,27,11.10
2019,06,25,00,28,11.10
2019,06,25,00,29,11.10
2019,06,25,00,30,11.10
2019,06,25,00,31,11.10
2019,06,25,00,32,11.10
2019,06,25,00,33,11.10
2019,06,25,00,34,11.10
2019,06,25,00,35,11.10
2019,06,25,00,36,11.10
2019,06,25,00,37,11.10
2019,06,25,00,38,11.10
2019,06,25,00,39,11.10
2019,06,25,00,40,11.10
2019,06,25,00,41,11.10
2019,06,25,00,42,11.10
2019,06,25,00,43,11.10
2019,06,25,00,44,11.10
2019,06,25,00,45,11.10
2019,06,25,00,46,11.00
2019,06,25,00,47,11.00
2019,06,25,00,48,11.00
2019,06,25,00,49,10.90
2019,06,25,00,50,10.90
2019,06,25,00,51,10.90
2019,06,25,00,52,10.90
2019,06,25,00,53,10.90
2019,06,25,00,54,10.90
2019,06,25,00,55,10.90
2019,06,25,00,56,10.90
2019,06,25,00,57,10.90
2019,06,25,00,58,10.90
2019,06,25,00,59,10.80
2019,06,25,01,00,10.80
2019,06,25,01,01,10.80
2019,06,25,01,02,10.80
2019,06,25,01,03,10.80
2019,06,25,01,04,10.80
2019,06,25,01,05,10.80
2019,06,25,01,06,10.80
2019,06,25,01,07,10.80
2019,06,25,01,08,10.80
2019,06,25,01,09,10.70
2019,06,25,01,10,10.70
2019,06,25,01,11,10.70
2019,06,25,01,12,10.70
2019,06,25,01,13,10.70
2019,06,25,01,14,10.70
2019,06,25,01,15,10.60
2019,06,25,01,16,10.60
2019,06,25,01,17,10.60
2019,06,25,01,18,10.60
2019,06,25,01,19,10.60
2019,06,25,01,20,10.60
2019,06,25,01,21,10.60
2019,06,25,01,22,10.60
2019,06,25,01,23,10.60
2019,06,25,01,24,10.60
2019,06,25,01,25,10.60
2019,06,25,01,26,10.60
2019,06,25,01,27,10.60
2019,06,25,01,28,10.60
2019,06,25,01,29,10.50
2019,06,25,01,30,10.50
2019,06,25,01,31,10.40
2019,06,25,01,32,10.40
2019,06,25,01,33,10.40
2019,06,25,01,34,10.40
2019,06,25,01,35,10.40
2019,06,25,01,36,10.30
2019,06,25,01,37,10.30
2019,06,25,01,38,10.30
2019,06,25,01,39,10.30
2019,06,25,01,40,10.20
2019,06,25,01,41,10.20
2019,06,25,01,42,10.20
2019,06,25,01,43,10.20
2019,06,25,01,44,10.20
2019,06,25,01,45,10.20
2019,06,25,01,46,10.20
2019,06,25,01,47,10.20
2019,06,25,01,48,10.10
2019,06,25,01,49,10.10
2019,06,25,01,50,10.10
2019,06,25,01,51,10.10
2019,06,25,01,52,10.10
2019,06,25,01,53,10.10
2019,06,25,01,54,10.10
2019,06,25,01,55,10.10
2019,06,25,01,56,10.10
2019,06,25,01,57,10.10
2019,06,25,01,58,10.10
2019,06,25,01,59,10.10
2019,06,25,02,00,10.10
2019,06,25,02,01,10.10
2019,06,25,02,02,10.10
2019,06,25,02,03,10.10
2019,06,25,02,04,10.00
2019,06,25,02,05,10.00
2019,06,25,02,06,10.00
2019,06,25,02,07,10.00
2019,06,25,02,08,10.00
2019,06,25,02,09,9.90
2019,06,25,02,10,9.90
2019,06,25,02,11,9.90
2019,06,25,02,12,9.90
2019,06,25,02,13,9.90
2019,06,25,02,14,9.80
2019,06,25,02,15,9.80
2019,06,25,02,16,9.80
2019,06,25,02,17,9.80
2019,06,25,02,18,9.80
2019,06,25,02,19,9.80
2019,06,25,02,20,9.80
2019,06,25,02,21,9.80
2019,06,25,02,22,9.80
2019,06,25,02,23,9.80
2019,06,25,02,24,9.90
2019,06,25,02,25,9.90
2019,06,25,02,26,9.90
2019,06,25,02,27,9.90
2019,06,25,02,28,9.90
2019,06,25,02,29,9.90
2019,06,25,02,30,9.90
2019,06,25,02,31,9.90
2019,06,25,02,32,9.90
2019,06,25,02,33,9.90
2019,06,25,02,34,9.90
2019,06,25,02,35,9.90
2019,06,25,02,36,9.90
2019,06,25,02,37,9.90
2019,06,25,02,38,9.80
2019,06,25,02,39,9.80
2019,06,25,02,40,9.80
2019,06,25,02,41,9.80
2019,06,25,02,42,9.80
2019,06,25,02,43,9.80
2019,06,25,02,44,9.80
2019,06,25,02,45,9.80
2019,06,25,02,46,9.80
2019,06,25,02,47,9.80
2019,06,25,02,48,9.80
2019,06,25,02,49,9.70
2019,06,25,02,50,9.70
2019,06,25,02,51,9.70
2019,06,25,02,52,9.70
2019,06,25,02,53,9.60
2019,06,25,02,54,9.60
2019,06,25,02,55,9.60
2019,06,25,02,56,9.60
2019,06,25,02,57,9.60
2019,06,25,02,58,9.60
2019,06,25,02,59,9.50
2019,06,25,03,00,9.50
2019,06,25,03,01,9.50
2019,06,25,03,02,9.50
2019,06,25,03,03,9.50
2019,06,25,03,04,9.50
2019,06,25,03,05,9.50
2019,06,25,03,06,9.50
2019,06,25,03,07,9.60
2019,06,25,03,08,9.60
2019,06,25,03,09,9.60
2019,06,25,03,10,9.60
2019,06,25,03,11,9.60
2019,06,25,03,12,9.60
2019,06,25,03,13,9.70
2019,06,25,03,14,9.70
2019,06,25,03,15,9.70
2019,06,25,03,16,9.70
2019,06,25,03,17,9.70
2019,06,25,03,18,9.70
2019,06,25,03,19,9.70
2019,06,25,03,20,9.70
2019,06,25,03,21,9.70
2019,06,25,03,22,9.70
2019,06,25,03,23,9.70
2019,06,25,03,24,9.60
2019,06,25,03,25,9.60
2019,06,25,03,26,9.60
2019,06,25,03,27,9.50
2019,06,25,03,28,9.50
2019,06,25,03,29,9.50
2019,06,25,03,30,9.50
2019,06,25,03,31,9.40
2019,06,25,03,32,9.40
2019,06,25,03,33,9.40
2019,06,25,03,34,9.40
2019,06,25,03,35,9.40
2019,06,25,03,36,9.40
2019,06,25,03,37,9.30
2019,06,25,03,38,9.30
2019,06,25,03,39,9.30
2019,06,25,03,40,9.30
2019,06,25,03,41,9.30
2019,06,25,03,42,9.30
2019,06,25,03,43,9.30
2019,06,25,03,44,9.30
2019,06,25,03,45,9.30
2019,06,25,03,46,9.40
2019,06,25,03,47,9.40
2019,06,25,03,48,9.40
2019,06,25,03,49,9.40
2019,06,25,03,50,9.40
2019,06,25,03,51,9.40
2019,06,25,03,52,9.40
2019,06,25,03,53,9.40
2019,06,25,03,54,9.40
2019,06,25,03,55,9.30
2019,06,25,03,56,9.30
2019,06,25,03,57,9.30
2019,06,25,03,58,9.30
2019,06,25,03,59,9.30
2019,06,25,04,00,9.30
2019,06,25,04,01,9.30
2019,06,25,04,02,9.20
2019,06,25,04,03,9.20
2019,06,25,04,04,9.20
2019,06,25,04,05,9.20
2019,06,25,04,06,9.20
2019,06,25,04,07,9.20
2019,06,25,04,08,9.20
2019,06,25,04,09,9.10
2019,06,25,04,10,9.10
2019,06,25,04,11,9.10
2019,06,25,04,12,9.10
2019,06,25,04,13,9.10
2019,06,25,04,14,9.10
2019,06,25,04,15,9.10
2019,06,25,04,16,9.10
2019,06,25,04,17,9.10
2019,06,25,04,18,9.10
2019,06,25,04,19,9.10
2019,06,25,04,20,9.10
2019,06,25,04,21,9.10
2019,06,25,04,22,9.10
2019,06,25,04,23,9.00
2019,06,25,04,24,9.00
2019,06,25,04,25,9.00
2019,06,25,04,26,9.00
2019,06,25,04,27,9.00
2019,06,25,04,28,9.00
2019,06,25,04,29,9.00
2019,06,25,04,30,9.00
2019,06,25,04,31,9.00
2019,06,25,04,32,9.00
2019,06,25,04,33,9.00
2019,06,25,04,34,9.00
2019,06,25,04,35,9.00
2019,06,25,04,36,9.00
2019,06,25,04,37,9.00
2019,06,25,04,38,9.00
2019,06,25,04,39,9.00
2019,06,25,04,40,9.00
2019,06,25,04,41,9.10
2019,06,25,04,42,9.10
2019,06,25,04,43,9.10
2019,06,25,04,44,9.10
2019,06,25,04,45,9.20
2019,06,25,04,46,9.20
2019,06,25,04,47,9.20
2019,06,25,04,48,9.20
2019,06,25,04,49,9.20
2019,06,25,04,50,9.20
2019,06,25,04,51,9.20
2019,06,25,04,52,9.20
2019,06,25,04,53,9.20
2019,06,25,04,54,9.20
2019,06,25,04,55,9.20
2019,06,25,04,56,9.20
2019,06,25,04,57,9.20
2019,06,25,04,58,9.20
2019,06,25,04,59,9.20
2019,06,25,05,00,9.20
2019,06,25,05,01,9.20
2019,06,25,05,02,9.30
2019,06,25,05,03,9.30
2019,06,25,05,04,9.30
2019,06,25,05,05,9.30
2019,06,25,05,06,9.30
2019,06,25,05,07,9.30
2019,06,25,05,08,9.30
2019,06,25,05,09,9.30
2019,06,25,05,10,9.30
2019,06,25,05,11,9.30
2019,06,25,05,12,9.30
2019,06,25,05,13,9.20
2019,06,25,05,14,9.20
2019,06,25,05,15,9.20
2019,06,25,05,16,9.20
2019,06,25,05,17,9.20
2019,06,25,05,18,9.20
2019,06,25,05,19,9.20
2019,06,25,05,20,9.20
2019,06,25,05,21,9.20
2019,06,25,05,22,9.20
2019,06,25,05,23,9.20
2019,06,25,05,24,9.20
2019,06,25,05,25,9.10
2019,06,25,05,26,9.10
2019,06,25,05,27,9.10
2019,06,25,05,28,9.10
2019,06,25,05,29,9.20
2019,06,25,05,30,9.20
2019,06,25,05,31,9.20
2019,06,25,05,32,9.20
2019,06,25,05,33,9.20
2019,06,25,05,34,9.30
2019,06,25,05,35,9.30
2019,06,25,05,36,9.30
2019,06,25,05,37,9.30
2019,06,25,05,38,9.30
2019,06,25,05,39,9.40
2019,06,25,05,40,9.40
2019,06,25,05,41,9.40
2019,06,25,05,42,9.50
2019,06,25,05,43,9.50
2019,06,25,05,44,9.60
2019,06,25,05,45,9.60
2019,06,25,05,46,9.60
2019,06,25,05,47,9.70
2019,06,25,05,48,9.70
2019,06,25,05,49,9.70
2019,06,25,05,50,9.70
2019,06,25,05,51,9.70
2019,06,25,05,52,9.70
2019,06,25,05,53,9.70
2019,06,25,05,54,9.70
2019,06,25,05,55,9.80
2019,06,25,05,56,9.80
2019,06,25,05,57,9.70
2019,06,25,05,58,9.70
2019,06,25,05,59,9.70
2019,06,25,06,00,9.70
2019,06,25,06,01,9.70
2019,06,25,06,02,9.70
2019,06,25,06,03,9.70
2019,06,25,06,04,9.70
2019,06,25,06,05,9.80
2019,06,25,06,06,9.80
2019,06,25,06,07,9.80
2019,06,25,06,08,9.80
2019,06,25,06,09,9.80
2019,06,25,06,10,9.90
2019,06,25,06,11,9.90
2019,06,25,06,12,9.90
2019,06,25,06,13,10.00
2019,06,25,06,14,10.00
2019,06,25,06,15,10.00
2019,06,25,06,16,10.00
2019,06,25,06,17,10.00
2019,06,25,06,18,10.10
2019,06,25,06,19,10.10
2019,06,25,06,20,10.10
2019,06,25,06,21,10.10
2019,06,25,06,22,10.10
2019,06,25,06,23,10.10
2019,06,25,06,24,10.10
2019,06,25,06,25,10.20
2019,06,25,06,26,10.20
2019,06,25,06,27,10.20
2019,06,25,06,28,10.20
2019,06,25,06,29,10.20
2019,06,25,06,30,10.30
2019,06,25,06,31,10.30
2019,06,25,06,32,10.30
2019,06,25,06,33,10.30
2019,06,25,06,34,10.40
2019,06,25,06,35,10.50
2019,06,25,06,36,10.50
2019,06,25,06,37,10.60
2019,06,25,06,38,10.60
2019,06,25,06,39,10.70
2019,06,25,06,40,10.70
2019,06,25,06,41,10.80
2019,06,25,06,42,10.80
2019,06,25,06,43,10.90
2019,06,25,06,44,10.90
2019,06,25,06,45,11.00
2019,06,25,06,46,11.10
2019,06,25,06,47,11.20
2019,06,25,06,48,11.20
2019,06,25,06,49,11.30
2019,06,25,06,50,11.40
2019,06,25,06,51,11.40
2019,06,25,06,52,11.50
2019,06,25,06,53,11.60
2019,06,25,06,54,11.60
2019,06,25,06,55,11.70
2019,06,25,06,56,11.80
2019,06,25,06,57,11.80
2019,06,25,06,58,11.90
2019,06,25,06,59,11.90
2019,06,25,07,00,12.00
2019,06,25,07,01,12.00
2019,06,25,07,02,12.10
2019,06,25,07,03,12.20
2019,06,25,07,04,12.20
2019,06,25,07,05,12.30
2019,06,25,07,06,12.30
2019,06,25,07,07,12.40
2019,06,25,07,08,12.50
2019,06,25,07,09,12.50
2019,06,25,07,10,12.60
2019,06,25,07,11,12.70
2019,06,25,07,12,12.70
2019,06,25,07,13,12.80
2019,06,25,07,14,12.90
2019,06,25,07,15,12.90
2019,06,25,07,16,13.00
2019,06,25,07,17,13.10
2019,06,25,07,18,13.10
2019,06,25,07,19,13.20
2019,06,25,07,20,13.30
2019,06,25,07,21,13.30
2019,06,25,07,22,13.40
2019,06,25,07,23,13.40
2019,06,25,07,24,13.50
2019,06,25,07,25,13.60
2019,06,25,07,26,13.60
2019,06,25,07,27,13.70
2019,06,25,07,28,13.80
2019,06,25,07,29,13.80
2019,06,25,07,30,13.80
2019,06,25,07,31,13.90
2019,06,25,07,32,13.90
2019,06,25,07,33,14.00
2019,06,25,07,34,14.00
2019,06,25,07,35,14.10
2019,06,25,07,36,14.10
2019,06,25,07,37,14.20
2019,06,25,07,38,14.20
2019,06,25,07,39,14.20
2019,06,25,07,40,14.30
2019,06,25,07,41,14.30
2019,06,25,07,42,14.30
2019,06,25,07,43,14.40
2019,06,25,07,44,14.40
2019,06,25,07,45,14.50
2019,06,25,07,46,14.50
2019,06,25,07,47,14.60
2019,06,25,07,48,14.60
2019,06,25,07,49,14.60
2019,06,25,07,50,14.60
2019,06,25,07,51,14.60
2019,06,25,07,52,14.70
2019,06,25,07,53,14.70
2019,06,25,07,54,14.80
2019,06,25,07,55,14.80
2019,06,25,07,56,14.90
2019,06,25,07,57,15.00
2019,06,25,07,58,15.00
2019,06,25,07,59,15.10
2019,06,25,08,00,15.10
2019,06,25,08,01,15.20
2019,06,25,08,02,15.20
2019,06,25,08,03,15.30
2019,06,25,08,04,15.30
2019,06,25,08,05,15.30
2019,06,25,08,06,15.40
2019,06,25,08,07,15.40
2019,06,25,08,08,15.30
2019,06,25,08,09,15.30
2019,06,25,08,10,15.30
2019,06,25,08,11,15.30
2019,06,25,08,12,15.30
2019,06,25,08,13,15.30
2019,06,25,08,14,15.30
2019,06,25,08,15,15.30
2019,06,25,08,16,15.30
2019,06,25,08,17,15.30
2019,06,25,08,18,15.30
2019,06,25,08,19,15.40
2019,06,25,08,20,15.40
2019,06,25,08,21,15.40
2019,06,25,08,22,15.40
2019,06,25,08,23,15.50
2019,06,25,08,24,15.60
2019,06,25,08,25,15.70
2019,06,25,08,26,15.70
2019,06,25,08,27,15.80
2019,06,25,08,28,15.80
2019,06,25,08,29,15.80
2019,06,25,08,30,15.90
2019,06,25,08,31,15.90
2019,06,25,08,32,16.00
2019,06,25,08,33,16.00
2019,06,25,08,34,16.10
2019,06,25,08,35,16.20
2019,06,25,08,36,16.20
2019,06,25,08,37,16.30
2019,06,25,08,38,16.40
2019,06,25,08,39,16.50
2019,06,25,08,40,16.50
2019,06,25,08,41,16.60
2019,06,25,08,42,16.60
2019,06,25,08,43,16.60
2019,06,25,08,44,16.60
2019,06,25,08,45,16.60
2019,06,25,08,46,16.60
2019,06,25,08,47,16.60
2019,06,25,08,48,16.70
2019,06,25,08,49,16.70
2019,06,25,08,50,16.80
2019,06,25,08,51,16.80
2019,06,25,08,52,16.80
2019,06,25,08,53,16.80
2019,06,25,08,54,16.80
2019,06,25,08,55,16.70
2019,06,25,08,56,16.70
2019,06,25,08,57,16.80
2019,06,25,08,58,16.80
2019,06,25,08,59,16.80
2019,06,25,09,00,16.80
2019,06,25,09,01,16.80
2019,06,25,09,02,16.90
2019,06,25,09,03,17.00
2019,06,25,09,04,17.10
2019,06,25,09,05,17.10
2019,06,25,09,06,17.20
2019,06,25,09,07,17.20
2019,06,25,09,08,17.20
2019,06,25,09,09,17.20
2019,06,25,09,10,17.30
2019,06,25,09,11,17.30
2019,06,25,09,12,17.50
2019,06,25,09,13,17.60
2019,06,25,09,14,17.70
2019,06,25,09,15,17.80
2019,06,25,09,16,17.90
2019,06,25,09,17,18.00
2019,06,25,09,18,18.00
2019,06,25,09,19,18.10
2019,06,25,09,20,18.10
2019,06,25,09,21,18.10
2019,06,25,09,22,18.20
2019,06,25,09,23,18.30
2019,06,25,09,24,18.40
2019,06,25,09,25,18.50
2019,06,25,09,26,18.50
2019,06,25,09,27,18.50
2019,06,25,09,28,18.50
2019,06,25,09,29,18.60
2019,06,25,09,30,18.60
2019,06,25,09,31,18.50
2019,06,25,09,32,18.40
2019,06,25,09,33,18.40
2019,06,25,09,34,18.30
2019,06,25,09,35,18.30
2019,06,25,09,36,18.40
2019,06,25,09,37,18.40
2019,06,25,09,38,18.40
2019,06,25,09,39,18.40
2019,06,25,09,40,18.40
2019,06,25,09,41,18.40
2019,06,25,09,42,18.30
2019,06,25,09,43,18.30
2019,06,25,09,44,18.30
2019,06,25,09,45,18.40
2019,06,25,09,46,18.40
2019,06,25,09,47,18.50
2019,06,25,09,48,18.50
2019,06,25,09,49,18.60
2019,06,25,09,50,18.60
2019,06,25,09,51,18.60
2019,06,25,09,52,18.70
2019,06,25,09,53,18.70
2019,06,25,09,54,18.80
2019,06,25,09,55,18.90
2019,06,25,09,56,19.00
2019,06,25,09,57,19.20
2019,06,25,09,58,19.30
2019,06,25,09,59,19.40
2019,06,25,10,00,19.50
2019,06,25,10,01,19.60
2019,06,25,10,02,19.60
2019,06,25,10,03,19.60
2019,06,25,10,04,19.60
2019,06,25,10,05,19.60
2019,06,25,10,06,19.60
2019,06,25,10,07,19.50
2019,06,25,10,08,19.40
2019,06,25,10,09,19.30
2019,06,25,10,10,19.20
2019,06,25,10,11,19.10
2019,06,25,10,12,19.00
2019,06,25,10,13,18.90
2019,06,25,10,14,18.90
2019,06,25,10,15,18.90
2019,06,25,10,16,19.00
2019,06,25,10,17,19.00
2019,06,25,10,18,19.10
2019,06,25,10,19,18.90
2019,06,25,10,20,18.80
2019,06,25,10,21,18.80
2019,06,25,10,22,18.80
2019,06,25,10,23,18.90
2019,06,25,10,24,19.00
2019,06,25,10,25,19.00
2019,06,25,10,26,19.00
2019,06,25,10,27,18.80
2019,06,25,10,28,18.70
2019,06,25,10,29,18.50
2019,06,25,10,30,18.40
2019,06,25,10,31,18.30
2019,06,25,10,32,18.20
2019,06,25,10,33,18.00
2019,06,25,10,34,17.90
2019,06,25,10,35,17.80
2019,06,25,10,36,17.80
2019,06,25,10,37,17.90
2019,06,25,10,38,18.00
2019,06,25,10,39,18.10
2019,06,25,10,40,18.10
2019,06,25,10,41,18.10
2019,06,25,10,42,18.10
2019,06,25,10,43,18.00
2019,06,25,10,44,17.90
2019,06,25,10,45,17.90
2019,06,25,10,46,17.80
2019,06,25,10,47,17.80
2019,06,25,10,48,17.80
2019,06,25,10,49,17.80
2019,06,25,10,50,17.80
2019,06,25,10,51,17.80
2019,06,25,10,52,17.70
2019,06,25,10,53,17.70
2019,06,25,10,54,17.60
2019,06,25,10,55,17.60
2019,06,25,10,56,17.70
2019,06,25,10,57,17.70
2019,06,25,10,58,17.70
2019,06,25,10,59,17.80
2019,06,25,11,00,17.80
2019,06,25,11,01,17.90
2019,06,25,11,02,18.00
2019,06,25,11,03,18.20
2019,06,25,11,04,18.20
2019,06,25,11,05,18.30
2019,06,25,11,06,18.20
2019,06,25,11,07,18.00
2019,06,25,11,08,18.00
2019,06,25,11,09,18.00
2019,06,25,11,10,17.90
2019,06,25,11,11,17.90
2019,06,25,11,12,17.80
2019,06,25,11,13,17.70
2019,06,25,11,14,17.70
2019,06,25,11,15,17.70
2019,06,25,11,16,17.70
2019,06,25,11,17,17.70
2019,06,25,11,18,17.80
2019,06,25,11,19,17.80
2019,06,25,11,20,17.70
2019,06,25,11,21,17.70
2019,06,25,11,22,17.70
2019,06,25,11,23,17.70
2019,06,25,11,24,17.70
2019,06,25,11,25,17.70
2019,06,25,11,26,17.80
2019,06,25,11,27,17.90
2019,06,25,11,28,18.10
2019,06,25,11,29,18.10
2019,06,25,11,30,18.10
2019,06,25,11,31,18.10
2019,06,25,11,32,18.00
2019,06,25,11,33,17.90
2019,06,25,11,34,17.90
2019,06,25,11,35,18.00
2019,06,25,11,36,18.00
2019,06,25,11,37,18.00
2019,06,25,11,38,18.10
2019,06,25,11,39,18.20
2019,06,25,11,40,18.20
2019,06,25,11,41,18.30
2019,06,25,11,42,18.40
2019,06,25,11,43,18.50
2019,06,25,11,44,18.50
2019,06,25,11,45,18.50
2019,06,25,11,46,18.60
2019,06,25,11,47,18.70
2019,06,25,11,48,18.70
2019,06,25,11,49,18.80
2019,06,25,11,50,18.80
2019,06,25,11,51,18.90
2019,06,25,11,52,19.00
2019,06,25,11,53,18.90
2019,06,25,11,54,18.60
2019,06,25,11,55,18.50
2019,06,25,11,56,18.40
2019,06,25,11,57,18.30
2019,06,25,11,58,18.30
2019,06,25,11,59,18.30
2019,06,25,12,00,18.40
2019,06,25,12,01,18.50
2019,06,25,12,02,18.60
2019,06,25,12,03,18.70
2019,06,25,12,04,18.80
2019,06,25,12,05,18.80
2019,06,25,12,06,18.90
2019,06,25,12,07,18.90
2019,06,25,12,08,19.00
2019,06,25,12,09,19.20
2019,06,25,12,10,19.20
2019,06,25,12,11,19.30
2019,06,25,12,12,19.30
2019,06,25,12,13,19.20
2019,06,25,12,14,19.10
2019,06,25,12,15,19.00
2019,06,25,12,16,18.90
2019,06,25,12,17,18.90
2019,06,25,12,18,18.90
2019,06,25,12,19,19.00
2019,06,25,12,20,19.10
2019,06,25,12,21,19.20
2019,06,25,12,22,19.20
2019,06,25,12,23,19.10
2019,06,25,12,24,19.10
2019,06,25,12,25,19.10
2019,06,25,12,26,19.10
2019,06,25,12,27,19.10
2019,06,25,12,28,19.20
2019,06,25,12,29,19.20
2019,06,25,12,30,19.20
2019,06,25,12,31,19.20
2019,06,25,12,32,19.30
2019,06,25,12,33,19.40
2019,06,25,12,34,19.50
2019,06,25,12,35,19.60
2019,06,25,12,36,19.80
2019,06,25,12,37,19.90
2019,06,25,12,38,20.00
2019,06,25,12,39,20.00
2019,06,25,12,40,19.90
2019,06,25,12,41,19.90
2019,06,25,12,42,19.80
2019,06,25,12,43,19.80
2019,06,25,12,44,19.70
2019,06,25,12,45,19.70
2019,06,25,12,46,19.70
2019,06,25,12,47,19.80
2019,06,25,12,48,19.80
2019,06,25,12,49,19.80
2019,06,25,12,50,19.80
2019,06,25,12,51,19.80
2019,06,25,12,52,19.80
2019,06,25,12,53,19.90
2019,06,25,12,54,19.80
2019,06,25,12,55,19.80
2019,06,25,12,56,19.90
2019,06,25,12,57,20.00
2019,06,25,12,58,20.10
2019,06,25,12,59,20.20
2019,06,25,13,00,20.20
2019,06,25,13,01,20.20
2019,06,25,13,02,20.20
2019,06,25,13,03,20.10
2019,06,25,13,04,20.00
2019,06,25,13,05,19.80
2019,06,25,13,06,19.70
2019,06,25,13,07,19.50
2019,06,25,13,08,19.50
2019,06,25,13,09,19.40
2019,06,25,13,10,19.30
2019,06,25,13,11,19.30
2019,06,25,13,12,19.40
2019,06,25,13,13,19.50
2019,06,25,13,14,19.60
2019,06,25,13,15,19.60
2019,06,25,13,16,19.70
2019,06,25,13,17,19.70
2019,06,25,13,18,19.70
2019,06,25,13,19,19.70
2019,06,25,13,20,19.70
2019,06,25,13,21,19.70
2019,06,25,13,22,19.70
2019,06,25,13,23,19.70
2019,06,25,13,24,19.70
2019,06,25,13,25,19.70
2019,06,25,13,26,19.70
2019,06,25,13,27,19.70
2019,06,25,13,28,19.70
2019,06,25,13,29,19.70
2019,06,25,13,30,19.60
2019,06,25,13,31,19.50
2019,06,25,13,32,19.40
2019,06,25,13,33,19.30
2019,06,25,13,34,19.30
2019,06,25,13,35,19.30
2019,06,25,13,36,19.40
2019,06,25,13,37,19.40
2019,06,25,13,38,19.50
2019,06,25,13,39,19.60
2019,06,25,13,40,19.70
2019,06,25,13,41,19.80
2019,06,25,13,42,19.90
2019,06,25,13,43,19.80
2019,06,25,13,44,19.80
2019,06,25,13,45,19.70
2019,06,25,13,46,19.60
2019,06,25,13,47,19.60
2019,06,25,13,48,19.60
2019,06,25,13,49,19.60
2019,06,25,13,50,19.60
2019,06,25,13,51,19.60
2019,06,25,13,52,19.60
2019,06,25,13,53,19.60
2019,06,25,13,54,19.60
2019,06,25,13,55,19.60
2019,06,25,13,56,19.60
2019,06,25,13,57,19.50
2019,06,25,13,58,19.40
2019,06,25,13,59,19.50
2019,06,25,14,00,19.60
2019,06,25,14,01,19.80
2019,06,25,14,02,19.90
2019,06,25,14,03,20.00
2019,06,25,14,04,20.10
2019,06,25,14,05,20.10
2019,06,25,14,06,20.20
2019,06,25,14,07,20.30
2019,06,25,14,08,20.30
2019,06,25,14,09,20.30
2019,06,25,14,10,20.20
2019,06,25,14,11,20.20
2019,06,25,14,12,20.20
2019,06,25,14,13,20.30
2019,06,25,14,14,20.30
2019,06,25,14,15,20.30
2019,06,25,14,16,20.30
2019,06,25,14,17,20.40
2019,06,25,14,18,20.40
2019,06,25,14,19,20.40
2019,06,25,14,20,20.50
2019,06,25,14,21,20.50
2019,06,25,14,22,20.40
2019,06,25,14,23,20.40
2019,06,25,14,24,20.40
2019,06,25,14,25,20.30
2019,06,25,14,26,20.20
2019,06,25,14,27,20.20
2019,06,25,14,28,20.20
2019,06,25,14,29,20.20
2019,06,25,14,30,20.20
2019,06,25,14,31,20.20
2019,06,25,14,32,20.20
2019,06,25,14,33,20.20
2019,06,25,14,34,20.20
2019,06,25,14,35,20.20
2019,06,25,14,36,20.20
2019,06,25,14,37,20.20
2019,06,25,14,38,20.20
2019,06,25,14,39,20.30
2019,06,25,14,40,20.30
2019,06,25,14,41,20.20
2019,06,25,14,42,20.20
2019,06,25,14,43,20.20
2019,06,25,14,44,20.20
2019,06,25,14,45,20.20
2019,06,25,14,46,20.10
2019,06,25,14,47,20.10
2019,06,25,14,48,20.10
2019,06,25,14,49,20.10
2019,06,25,14,50,20.10
2019,06,25,14,51,20.20
2019,06,25,14,52,20.20
2019,06,25,14,53,20.20
2019,06,25,14,54,20.40
2019,06,25,14,55,20.40
2019,06,25,14,56,20.50
2019,06,25,14,57,20.40
2019,06,25,14,58,20.40
2019,06,25,14,59,20.30
2019,06,25,15,00,20.20
2019,06,25,15,01,20.10
2019,06,25,15,02,20.00
2019,06,25,15,03,20.00
2019,06,25,15,04,20.00
2019,06,25,15,05,20.10
2019,06,25,15,06,20.20
2019,06,25,15,07,20.20
2019,06,25,15,08,20.30
2019,06,25,15,09,20.40
2019,06,25,15,10,20.50
2019,06,25,15,11,20.60
2019,06,25,15,12,20.70
2019,06,25,15,13,20.80
2019,06,25,15,14,20.70
2019,06,25,15,15,20.60
2019,06,25,15,16,20.50
2019,06,25,15,17,20.60
2019,06,25,15,18,20.60
2019,06,25,15,19,20.60
2019,06,25,15,20,20.60
2019,06,25,15,21,20.70
2019,06,25,15,22,20.80
2019,06,25,15,23,20.90
2019,06,25,15,24,20.90
2019,06,25,15,25,21.00
2019,06,25,15,26,21.10
2019,06,25,15,27,21.10
2019,06,25,15,28,21.20
2019,06,25,15,29,21.20
2019,06,25,15,30,21.10
2019,06,25,15,31,21.10
2019,06,25,15,32,21.10
2019,06,25,15,33,21.00
2019,06,25,15,34,21.00
2019,06,25,15,35,21.10
2019,06,25,15,36,21.10
2019,06,25,15,37,21.10
2019,06,25,15,38,21.10
2019,06,25,15,39,21.10
2019,06,25,15,40,21.10
2019,06,25,15,41,21.10
2019,06,25,15,42,21.10
2019,06,25,15,43,21.10
2019,06,25,15,44,21.00
2019,06,25,15,45,21.00
2019,06,25,15,46,21.10
2019,06,25,15,47,21.00
2019,06,25,15,48,21.00
2019,06,25,15,49,20.90
2019,06,25,15,50,20.90
2019,06,25,15,51,20.80
2019,06,25,15,52,20.70
2019,06,25,15,53,20.70
2019,06,25,15,54,20.60
2019,06,25,15,55,20.50
2019,06,25,15,56,20.50
2019,06,25,15,57,20.50
2019,06,25,15,58,20.50
2019,06,25,15,59,20.60
2019,06,25,16,00,20.60
2019,06,25,16,01,20.60
2019,06,25,16,02,20.60
2019,06,25,16,03,20.60
2019,06,25,16,04,20.50
2019,06,25,16,05,20.40
2019,06,25,16,06,20.40
2019,06,25,16,07,20.30
2019,06,25,16,08,20.20
2019,06,25,16,09,20.10
2019,06,25,16,10,20.00
2019,06,25,16,11,20.00
2019,06,25,16,12,20.00
2019,06,25,16,13,20.10
2019,06,25,16,14,20.10
2019,06,25,16,15,20.20
2019,06,25,16,16,20.30
2019,06,25,16,17,20.40
2019,06,25,16,18,20.40
2019,06,25,16,19,20.50
2019,06,25,16,20,20.50
2019,06,25,16,21,20.40
2019,06,25,16,22,20.40
2019,06,25,16,23,20.50
2019,06,25,16,24,20.50
2019,06,25,16,25,20.60
2019,06,25,16,26,20.60
2019,06,25,16,27,20.50
2019,06,25,16,28,20.40
2019,06,25,16,29,20.40
2019,06,25,16,30,20.30
2019,06,25,16,31,20.30
2019,06,25,16,32,20.30
2019,06,25,16,33,20.40
2019,06,25,16,34,20.40
2019,06,25,16,35,20.40
2019,06,25,16,36,20.30
2019,06,25,16,37,20.30
2019,06,25,16,38,20.30
2019,06,25,16,39,20.20
2019,06,25,16,40,20.20
2019,06,25,16,41,20.20
2019,06,25,16,42,20.20
2019,06,25,16,43,20.20
2019,06,25,16,44,20.20
2019,06,25,16,45,20.20
2019,06,25,16,46,20.20
2019,06,25,16,47,20.20
2019,06,25,16,48,20.30
2019,06,25,16,49,20.30
2019,06,25,16,50,20.40
2019,06,25,16,51,20.40
2019,06,25,16,52,20.50
2019,06,25,16,53,20.60
2019,06,25,16,54,20.70
2019,06,25,16,55,20.70
2019,06,25,16,56,20.70
2019,06,25,16,57,20.80
2019,06,25,16,58,20.70
2019,06,25,16,59,20.60
2019,06,25,17,00,20.50
2019,06,25,17,01,20.40
2019,06,25,17,02,20.30
2019,06,25,17,03,20.30
2019,06,25,17,04,20.20
2019,06,25,17,05,20.00
2019,06,25,17,06,19.90
2019,06,25,17,07,19.80
2019,06,25,17,08,19.70
2019,06,25,17,09,19.70
2019,06,25,17,10,19.70
2019,06,25,17,11,19.70
2019,06,25,17,12,19.70
2019,06,25,17,13,19.70
2019,06,25,17,14,19.60
2019,06,25,17,15,19.50
2019,06,25,17,16,19.50
2019,06,25,17,17,19.40
2019,06,25,17,18,19.40
2019,06,25,17,19,19.40
2019,06,25,17,20,19.40
2019,06,25,17,21,19.40
2019,06,25,17,22,19.40
2019,06,25,17,23,19.40
2019,06,25,17,24,19.30
2019,06,25,17,25,19.30
2019,06,25,17,26,19.20
2019,06,25,17,27,19.10
2019,06,25,17,28,19.10
2019,06,25,17,29,19.10
2019,06,25,17,30,19.10